Location: The Saddle
(36.8333°N, 80.3417°W)
Time: 20:06:40
(UTC-05:00)

A-11 Canister half - Pass Details

Date: 19 December 2023
Orbit: 1526 x 1682 km, 47.3° (Epoch: 25 February)

Event Time Altitude Azimuth Distance (km) Brightness Sun altitude
Rises 15:56:31 0° 247° (WSW) 4,856 13.2 10.9°
Reaches altitude 10° 15:59:39 10° 250° (WSW) 3,889 12.8 10.4°
Maximum altitude 16:09:38 69° 333° (NNW) 1,768 9.5 8.8°
Drops below altitude 10° 16:19:48 10° 57° (ENE) 3,946 10.5 7.2°
Sets 16:23:01 0° 60° (ENE) 4,931 11.0 6.7°
